Stations météo

réclame
Mon MeteoGroup
Eskdalemuir, Grande-Bretagne (3162): Température de l'air & dewpoint: 22.10.2020 02:00:00 - 28.10.2020 02:00:00 (GMT)Eskdalemuir, Grande-Bretagne (3162): Température de l'air -20cm & Température de l'air -100cm: 22.10.2020 02:00:00 - 28.10.2020 02:00:00 (GMT)Eskdalemuir, Grande-Bretagne (3162): Vitesse du vent & gusts: 22.10.2020 02:00:00 - 28.10.2020 02:00:00 (GMT)Eskdalemuir, Grande-Bretagne (3162): Direction du vent: 22.10.2020 02:00:00 - 28.10.2020 02:00:00 (GMT)Eskdalemuir, Grande-Bretagne (3162): reduced air pressure: 22.10.2020 02:00:00 - 28.10.2020 02:00:00 (GMT)Eskdalemuir, Grande-Bretagne (3162): visibility: 22.10.2020 02:00:00 - 28.10.2020 02:00:00 (GMT)Eskdalemuir, Grande-Bretagne (3162): Ensoleillement: 22.10.2020 02:00:00 - 28.10.2020 02:00:00 (GMT)Eskdalemuir, Grande-Bretagne (3162): Quantités de précipitations: 22.10.2020 02:00:00 - 28.10.2020 02:00:00 (GMT)
Date & Time tt [°C] td [°C] tt -20cm [°C] tt -100cm [°C] ff [km/h] ff [knt] fx [km/h] fx [knt] dd ppp [hPa] vv [km] sd [min] rr [mm]
28.10.2020 02:00:00 6,6 5,2 - - 26 14 - - SSW 989,1 15 0 -
28.10.2020 01:00:00 6,5 5,1 - - 28 15 - - SSW 989,0 16 0 0,0
28.10.2020 00:00:00 6,1 5,2 - - 22 12 - - SSW 988,7 13 - 0,2
27.10.2020 23:00:00 5,1 4,3 - - 15 8 - - SSW 988,8 13 0 0,0
27.10.2020 22:00:00 4,6 4,0 - - 18 10 - - SSW 989,1 15 0 0,0
27.10.2020 21:00:00 5,0 3,9 - - 18 10 - - SW 988,3 15 0 0,0
27.10.2020 20:00:00 5,2 4,2 - - 13 7 - - SW 987,9 15 0 0,2
27.10.2020 19:00:00 5,9 5,0 - - 13 7 - - SSW 987,6 24 0 0,4
27.10.2020 18:00:00 6,6 5,0 - - 22 12 - - WSW 986,6 29 0 1,0
27.10.2020 17:00:00 6,7 5,5 - - 22 12 - - W 985,9 28 0 2,6
27.10.2020 16:00:00 8,2 8,0 - - 8 4 - - S 984,2 6 0 3,2
27.10.2020 15:00:00 8,0 7,7 - - 11 6 - - SSE 984,8 2,9 0 2,8
27.10.2020 14:00:00 7,8 7,4 - - 13 7 - - SE 985,8 7 0 1,6
27.10.2020 13:00:00 7,5 7,0 - - 15 8 - - SE 987,1 4,6 0 0,6
27.10.2020 12:00:00 7,1 6,5 - - 13 7 - - SE 988,5 8 0 0,0
27.10.2020 11:00:00 6,8 6,2 - - 13 7 - - SSE 990,0 12 0 0,2
27.10.2020 10:00:00 6,4 6,1 - - 5 3 - - SE 990,9 4,2 0 0,0
27.10.2020 09:00:00 5,7 5,3 10,2 11,0 8 4 - - SSE 991,4 20 0 0,0
27.10.2020 08:00:00 5,4 5,2 - - 5 3 - - SE 992,2 7 0 0,0
27.10.2020 07:00:00 5,5 5,1 - - 5 3 - - SSW 992,5 11 0 0,0
27.10.2020 06:00:00 5,3 4,7 - - 9 5 - - WSW 992,9 20 0 0,0
27.10.2020 05:00:00 5,5 4,8 - - 13 7 - - SSW 993,5 19 0 0,0
27.10.2020 04:00:00 6,3 5,7 - - 9 5 - - S 993,7 18 0 0,0
27.10.2020 03:00:00 6,0 5,6 - - 11 6 - - S 993,9 19 0 0,0
27.10.2020 02:00:00 6,0 5,0 - - 8 4 - - S 994,3 17 0 0,0
27.10.2020 01:00:00 6,7 5,3 - - 13 7 - - SSW 994,2 17 0 0,0
27.10.2020 00:00:00 7,6 5,4 - - 16 9 - - WSW 993,9 22 - 0,0
26.10.2020 23:00:00 7,7 5,6 - - 11 6 - - SW 994,0 17 0 0,0
26.10.2020 22:00:00 8,2 5,6 - - 13 7 - - WSW 993,8 20 0 0,0
26.10.2020 21:00:00 8,2 5,8 - - 16 9 - - W 993,3 23 0 0,0
26.10.2020 20:00:00 8,1 6,1 - - 16 9 - - W 992,9 19 0 0,0
26.10.2020 19:00:00 8,3 6,0 - - 28 15 - - W 992,2 35 0 0,0
26.10.2020 18:00:00 8,2 6,3 - - 21 11 - - W 991,4 18 0 0,0
26.10.2020 17:00:00 8,4 6,6 - - 18 10 57 31 W 990,6 30 0 0,0
26.10.2020 16:00:00 8,5 6,8 - - 16 9 - - W 989,9 11 0 0,0
26.10.2020 15:00:00 8,5 6,8 - - 18 10 - - W 989,3 12 0 0,2
26.10.2020 14:00:00 8,3 6,7 - - 22 12 46 25 W 988,8 29 0 0,2
26.10.2020 13:00:00 8,4 6,7 - - 21 11 - - W 988,3 45 0 0,2
26.10.2020 12:00:00 8,7 6,7 - - 22 12 - - WSW 987,9 15 6 0,0
26.10.2020 11:00:00 8,4 7,0 - - 18 10 - - WSW 987,5 9 0 0,6
26.10.2020 10:00:00 7,9 6,9 - - 15 8 - - SW 987,0 14 0 0,2
26.10.2020 09:00:00 7,6 6,7 10,2 11,2 15 8 - - SW 986,5 30 0 1,0
26.10.2020 08:00:00 7,3 7,0 - - 15 8 - - SSW 986,1 4,0 0 0,0
26.10.2020 07:00:00 7,0 6,6 - - 8 4 - - S 985,7 40 0 0,2
26.10.2020 06:00:00 7,4 6,9 - - 11 6 - - SSW 985,0 16 0 0,8
26.10.2020 05:00:00 7,4 7,0 - - 13 7 - - S 984,9 3,5 0 1,2
26.10.2020 04:00:00 7,4 6,8 - - 26 14 - - S 984,8 12 0 2,2
26.10.2020 03:00:00 7,3 6,4 - - 24 13 - - S 985,1 14 0 0,8
26.10.2020 02:00:00 7,4 6,7 - - 16 9 - - S 985,7 13 0 0,0
26.10.2020 01:00:00 7,4 6,6 - - 18 10 - - S 986,1 14 0 0,0
26.10.2020 00:00:00 7,2 6,4 - - 16 9 - - S 986,3 14 - 0,0
25.10.2020 23:00:00 7,2 6,6 - - 15 8 - - SSE 986,7 16 0 0,2
25.10.2020 22:00:00 7,0 6,1 - - 16 9 - - S 986,9 10 0 0,2
25.10.2020 21:00:00 6,7 6,2 - - 13 7 - - SSE 987,2 13 0 2,8
25.10.2020 20:00:00 7,0 5,9 - - 15 8 - - S 987,2 6 0 0,4
25.10.2020 19:00:00 7,4 6,1 - - 15 8 - - S 987,0 17 0 0,4
25.10.2020 18:00:00 7,0 5,5 - - 18 10 - - S 987,5 18 0 0,2
25.10.2020 17:00:00 7,4 5,8 - - 18 10 - - S 987,3 17 0 0,0
25.10.2020 16:00:00 8,0 6,0 - - 24 13 52 28 S 986,8 25 0 0,0
25.10.2020 15:00:00 8,4 6,3 - - 26 14 48 26 S 986,5 20 0 0,2
25.10.2020 14:00:00 8,7 6,2 - - 29 16 50 27 S 986,4 19 6 0,0
25.10.2020 13:00:00 8,4 5,7 - - 29 16 57 31 S 986,6 40 12 0,0
25.10.2020 12:00:00 8,6 5,8 - - 28 15 57 31 SSW 986,4 40 18 0,0
25.10.2020 11:00:00 8,5 6,2 - - 22 12 - - SSW 986,2 26 18 0,0
25.10.2020 10:00:00 7,5 6,4 - - 22 12 - - SSW 985,8 21 12 0,2
25.10.2020 09:00:00 6,4 5,5 10,5 11,2 18 10 - - S 985,5 9 0 0,8
25.10.2020 08:00:00 6,4 5,7 - - 13 7 54 29 S 985,4 23 0 0,4
25.10.2020 07:00:00 6,0 5,5 - - 13 7 - - S 984,8 20 0 3,4
25.10.2020 06:00:00 6,0 5,4 - - 26 14 - - SSE 985,2 1,5 0 1,2
25.10.2020 05:00:00 6,0 5,5 - - 15 8 - - S 985,1 11 0 0,2
25.10.2020 04:00:00 4,6 4,2 - - 11 6 - - SE 985,2 14 0 0,0
25.10.2020 03:00:00 4,3 3,9 - - 13 7 - - SSE 985,7 17 0 0,0
25.10.2020 02:00:00 4,2 3,9 - - 15 8 - - SSE 986,3 15 0 0,2
25.10.2020 01:00:00 4,5 4,3 - - 11 6 - - S 986,9 24 0 0,2
25.10.2020 00:00:00 - - - - - - - - - - - - -
24.10.2020 23:00:00 3,7 3,4 - - 4 2 - - SSW 987,4 16 0 0,0
24.10.2020 22:00:00 4,2 3,7 - - 8 4 - - S 987,4 28 0 0,2
24.10.2020 21:00:00 5,1 4,1 - - 11 6 - - SSW 987,6 4,7 0 4,2
24.10.2020 20:00:00 6,0 5,0 - - 9 5 - - S 987,3 45 0 0,0
24.10.2020 19:00:00 6,5 5,3 - - 8 4 - - SW 987,2 40 0 0,4
24.10.2020 18:00:00 7,5 5,7 - - 22 12 - - S 987,9 9 0 0,2
24.10.2020 17:00:00 7,9 6,8 - - 8 4 - - S 988,0 12 0 0,0
24.10.2020 16:00:00 8,3 6,7 - - 11 6 - - S 988,5 13 0 0,0
24.10.2020 15:00:00 8,8 7,6 - - 16 9 - - S 989,3 12 0 0,0
24.10.2020 14:00:00 8,9 7,8 - - 13 7 - - S 990,2 10 0 0,0
24.10.2020 13:00:00 8,4 7,7 - - 22 12 - - S 991,1 14 0 0,0
24.10.2020 12:00:00 8,0 7,5 - - 21 11 - - S 991,0 13 0 -
24.10.2020 11:00:00 7,6 7,2 - - 15 8 - - S 991,1 8 0 0,2
24.10.2020 10:00:00 7,5 6,8 - - 15 8 - - S 991,0 16 0 2,2
24.10.2020 09:00:00 8,0 6,8 10,9 11,2 37 20 59 32 WSW 990,2 7 0 7,6
24.10.2020 08:00:00 8,4 8,0 - - 26 14 54 29 SSE 989,0 6 0 2,0
24.10.2020 07:00:00 7,8 7,3 - - 26 14 52 28 S 989,8 10 0 1,2
24.10.2020 06:00:00 7,7 7,2 - - 34 18 61 33 S 990,9 7 0 1,8
24.10.2020 05:00:00 7,8 7,1 - - 26 14 48 26 S 992,7 4,0 0 0,6
24.10.2020 04:00:00 7,6 6,9 - - 28 15 57 31 S 994,3 6 0 0,6
24.10.2020 03:00:00 7,4 6,8 - - 31 17 50 27 S 996,0 8 0 0,6
24.10.2020 02:00:00 6,9 6,2 - - 22 12 - - S 997,4 16 0 0,0
24.10.2020 01:00:00 5,9 5,6 - - 15 8 - - S 999,1 21 0 0,4
24.10.2020 00:00:00 4,7 4,6 - - 9 5 - - S 1000,4 17 - 0,0
23.10.2020 23:00:00 2,6 2,6 - - 5 3 - - SW 1001,9 3,6 0 0,2
23.10.2020 22:00:00 1,9 1,7 - - 4 2 - - NW 1002,6 13 0 0,0
23.10.2020 21:00:00 1,8 1,3 - - 2 1 - - E 1003,1 3,8 0 0,0
23.10.2020 20:00:00 3,2 2,8 - - 8 4 - - S 1003,6 15 0 0,0
23.10.2020 19:00:00 4,2 3,4 - - 9 5 - - SSW 1003,8 35 0 0,0
23.10.2020 18:00:00 5,0 3,9 - - 8 4 - - S 1003,5 40 0 0,0
23.10.2020 17:00:00 6,9 4,2 - - 13 7 - - SW 1002,8 40 30 0,0
23.10.2020 16:00:00 8,8 4,6 - - 8 4 - - W 1002,1 40 24 0,0
23.10.2020 15:00:00 9,4 4,7 - - 9 5 - - WSW 1001,8 27 24 0,0
23.10.2020 14:00:00 9,2 5,2 - - 11 6 - - W 1001,4 28 30 0,0
23.10.2020 13:00:00 8,6 6,0 - - 11 6 - - SW 1000,8 40 6 0,0
23.10.2020 12:00:00 8,7 6,1 - - 13 7 - - WSW 1000,7 26 0 0,0
23.10.2020 11:00:00 8,6 7,3 - - 11 6 - - WSW 1000,1 50 0 1,0
23.10.2020 10:00:00 7,7 7,4 - - 26 14 - - S 999,7 6 0 4,8
23.10.2020 09:00:00 7,6 7,3 11,2 11,4 18 10 - - S 999,8 6 0 2,2
23.10.2020 08:00:00 7,0 6,6 - - 15 8 - - S 1000,4 9 0 1,0
23.10.2020 07:00:00 6,8 6,5 - - 13 7 - - S 1001,1 12 0 0,4
23.10.2020 06:00:00 6,5 5,9 - - 16 9 - - SSE 1001,5 6 0 0,2
23.10.2020 05:00:00 5,8 5,2 - - 9 5 - - SSE 1002,0 15 0 0,8
23.10.2020 04:00:00 5,9 4,8 - - 8 4 - - S 1002,6 21 0 0,0
23.10.2020 03:00:00 5,8 4,3 - - 5 3 - - S 1003,0 40 0 0,0
23.10.2020 02:00:00 5,6 4,5 - - 5 3 - - S 1003,8 45 0 0,0
23.10.2020 01:00:00 5,7 5,2 - - 8 4 - - SSE 1004,5 35 0 0,0
23.10.2020 00:00:00 5,7 5,4 - - 8 4 - - SSE 1005,0 30 - 0,0
22.10.2020 23:00:00 5,6 5,2 - - 5 3 - - SSE 1005,3 21 0 0,0
22.10.2020 22:00:00 6,1 5,6 - - 5 3 - - S 1005,6 35 0 0,0
22.10.2020 21:00:00 6,5 5,9 - - 8 4 - - S 1005,9 40 0 0,0
22.10.2020 20:00:00 6,7 5,9 - - 8 4 - - SSW 1005,9 50 0 0,0
22.10.2020 19:00:00 7,1 5,7 - - 11 6 - - WSW 1005,7 50 0 0,2
22.10.2020 18:00:00 7,4 6,0 - - 18 10 - - WSW 1005,2 16 0 0,0
22.10.2020 17:00:00 8,5 7,7 - - 9 5 - - SW 1004,3 3,1 0 0,4
22.10.2020 16:00:00 9,4 7,9 - - 13 7 - - W 1003,6 6 0 0,0
22.10.2020 15:00:00 9,7 8,4 - - 11 6 - - W 1002,9 40 0 0,2
22.10.2020 14:00:00 10,3 8,6 - - 8 4 - - WSW 1002,3 45 0 0,0
22.10.2020 13:00:00 10,7 8,2 - - 5 3 - - WNW 1001,8 50 0 0,0
22.10.2020 12:00:00 10,8 8,4 - - 5 3 - - W 1001,4 50 0 0,0
22.10.2020 11:00:00 10,7 8,5 - - 9 5 - - WNW 1000,9 50 0 0,0
22.10.2020 10:00:00 10,2 8,6 - - 8 4 - - WNW 1000,4 50 0 0,0
22.10.2020 09:00:00 10,0 8,2 11,2 11,4 8 4 - - WNW 999,6 50 36 0,2
22.10.2020 08:00:00 7,6 7,4 - - 9 5 - - WSW 998,8 50 18 0,0
22.10.2020 07:00:00 7,3 7,0 - - 5 3 - - SSW 997,9 50 0 0,0
22.10.2020 06:00:00 7,8 7,6 - - 8 4 - - SW 997,1 25 0 0,0
22.10.2020 05:00:00 6,8 6,5 - - 4 2 - - W 996,3 50 0 0,0
22.10.2020 04:00:00 8,1 7,9 - - 5 3 - - SSE 995,6 24 0 0,0
22.10.2020 03:00:00 8,1 8,0 - - 5 3 - - SW 995,2 2,1 0 0,2
22.10.2020 02:00:00 7,9 7,6 - - 18 10 - - S 995,2 2,6 0 0,2

tt = Température de l'air
td = dewpoint
tt -20cm = Température de l'air -20cm
tt -100cm = Température de l'air -100cm
ff = Vitesse du vent
fx = gusts
dd = Direction du vent
ppp = reduced air pressure
vv = visibility
sd = Ensoleillement
rr = Quantités de précipitations

stations d'obs. à proximité